TimeMDT,TemperatureF,Dew PointF,Humidity,Sea Level PressureIn,VisibilityMPH,Wind Direction,Wind SpeedMPH,Gust SpeedMPH,PrecipitationIn,Events,Conditions,WindDirDegrees,DateUTC
12:15 AM,44.6,39.2,81,29.96,10.0,South,4.6,-,N/A,,Clear,180,2013-09-27 06:15:00
12:35 AM,44.6,39.2,81,29.97,10.0,South,5.8,-,N/A,,Partly Cloudy,180,2013-09-27 06:35:00
12:55 AM,44.6,39.2,81,29.95,10.0,SSW,4.6,-,N/A,,Scattered Clouds,200,2013-09-27 06:55:00
1:15 AM,44.6,39.2,81,29.94,10.0,SW,3.5,-,N/A,,Partly Cloudy,230,2013-09-27 07:15:00
1:55 AM,44.6,41.0,87,29.93,10.0,SW,4.6,-,N/A,,Scattered Clouds,230,2013-09-27 07:55:00
2:15 AM,44.6,39.2,81,29.92,10.0,WNW,6.9,-,N/A,,Mostly Cloudy,290,2013-09-27 08:15:00
2:35 AM,46.4,37.4,71,29.92,10.0,WNW,8.1,-,N/A,,Overcast,290,2013-09-27 08:35:00
2:55 AM,46.4,37.4,71,29.89,10.0,NW,9.2,-,N/A,,Mostly Cloudy,310,2013-09-27 08:55:00
3:15 AM,46.4,37.4,71,29.89,10.0,WNW,9.2,-,N/A,,Partly Cloudy,300,2013-09-27 09:15:00
3:35 AM,44.6,37.4,76,29.90,10.0,WNW,10.4,-,N/A,,Clear,290,2013-09-27 09:35:00
4:15 AM,46.4,35.6,66,29.91,10.0,West,9.2,-,N/A,,Partly Cloudy,270,2013-09-27 10:15:00
4:35 AM,44.6,37.4,76,29.90,10.0,West,5.8,-,N/A,,Clear,280,2013-09-27 10:35:00
4:55 AM,44.6,35.6,71,29.91,10.0,West,8.1,-,N/A,,Clear,280,2013-09-27 10:55:00
5:15 AM,44.6,37.4,76,29.91,10.0,WNW,9.2,-,N/A,,Clear,300,2013-09-27 11:15:00
5:35 AM,44.6,35.6,71,29.93,10.0,West,8.1,-,N/A,,Clear,270,2013-09-27 11:35:00
5:55 AM,44.6,35.6,71,29.91,10.0,West,10.4,-,N/A,,Partly Cloudy,280,2013-09-27 11:55:00
6:15 AM,42.8,35.6,76,29.92,10.0,West,10.4,-,N/A,,Partly Cloudy,280,2013-09-27 12:15:00
6:35 AM,42.8,35.6,76,29.90,10.0,WNW,9.2,-,N/A,,Clear,300,2013-09-27 12:35:00
6:55 AM,41.0,35.6,81,29.90,10.0,WNW,9.2,-,N/A,,Clear,300,2013-09-27 12:55:00
7:15 AM,41.0,35.6,81,29.91,10.0,WNW,10.4,-,N/A,,Partly Cloudy,290,2013-09-27 13:15:00
7:35 AM,42.8,35.6,76,29.92,10.0,WNW,11.5,-,N/A,,Mostly Cloudy,290,2013-09-27 13:35:00
7:55 AM,42.8,35.6,76,29.92,10.0,WNW,10.4,-,N/A,,Overcast,290,2013-09-27 13:55:00
8:15 AM,44.6,35.6,71,29.92,10.0,West,11.5,-,N/A,,Overcast,280,2013-09-27 14:15:00
8:35 AM,44.6,35.6,71,29.92,10.0,WNW,10.4,-,N/A,,Overcast,300,2013-09-27 14:35:00
8:55 AM,46.4,35.6,66,29.92,10.0,WNW,11.5,-,N/A,,Overcast,300,2013-09-27 14:55:00
9:15 AM,46.4,35.6,66,29.93,10.0,WNW,11.5,-,N/A,,Overcast,290,2013-09-27 15:15:00
9:35 AM,46.4,35.6,66,29.92,10.0,WNW,10.4,-,N/A,,Overcast,300,2013-09-27 15:35:00
9:55 AM,46.4,37.4,71,29.91,10.0,NW,8.1,-,N/A,,Overcast,310,2013-09-27 15:55:00
10:15 AM,48.2,37.4,66,29.91,10.0,WNW,9.2,-,N/A,,Overcast,300,2013-09-27 16:15:00
10:35 AM,48.2,37.4,66,29.92,10.0,NW,8.1,-,N/A,,Overcast,310,2013-09-27 16:35:00
10:55 AM,48.2,35.6,62,29.92,10.0,WNW,4.6,-,N/A,,Overcast,300,2013-09-27 16:55:00
11:15 AM,48.2,35.6,62,29.92,10.0,West,8.1,-,N/A,,Overcast,280,2013-09-27 17:15:00
11:35 AM,48.2,35.6,62,29.93,10.0,West,8.1,-,N/A,,Mostly Cloudy,280,2013-09-27 17:35:00
11:55 AM,48.2,37.4,66,29.91,10.0,WNW,5.8,-,N/A,,Mostly Cloudy,290,2013-09-27 17:55:00
12:35 PM,50.0,37.4,62,29.92,10.0,West,5.8,-,N/A,,Overcast,280,2013-09-27 18:35:00
12:55 PM,51.8,37.4,58,29.91,10.0,WNW,6.9,-,N/A,,Mostly Cloudy,300,2013-09-27 18:55:00
1:15 PM,51.8,37.4,58,29.90,10.0,WNW,8.1,-,N/A,,Partly Cloudy,300,2013-09-27 19:15:00
1:35 PM,51.8,37.4,58,29.89,10.0,NW,8.1,-,N/A,,Clear,310,2013-09-27 19:35:00
1:55 PM,53.6,37.4,54,29.88,10.0,WNW,8.1,-,N/A,,Clear,290,2013-09-27 19:55:00
2:15 PM,53.6,35.6,51,29.88,10.0,NW,8.1,-,N/A,,Clear,310,2013-09-27 20:15:00
2:35 PM,53.6,35.6,51,29.88,10.0,WNW,5.8,-,N/A,,Clear,300,2013-09-27 20:35:00
2:55 PM,53.6,35.6,51,29.87,10.0,West,6.9,-,N/A,,Scattered Clouds,280,2013-09-27 20:55:00
3:15 PM,53.6,35.6,51,29.86,10.0,WNW,6.9,-,N/A,,Scattered Clouds,300,2013-09-27 21:15:00
3:35 PM,53.6,33.8,47,29.87,10.0,West,6.9,-,N/A,,Partly Cloudy,270,2013-09-27 21:35:00
3:55 PM,53.6,35.6,51,29.87,10.0,West,6.9,-,N/A,,Clear,280,2013-09-27 21:55:00
4:15 PM,53.6,33.8,47,29.88,10.0,West,6.9,-,N/A,,Clear,270,2013-09-27 22:15:00
4:35 PM,53.6,33.8,47,29.87,10.0,WNW,5.8,-,N/A,,Clear,300,2013-09-27 22:35:00
4:55 PM,53.6,33.8,47,29.88,10.0,West,5.8,-,N/A,,Scattered Clouds,270,2013-09-27 22:55:00
5:15 PM,53.6,32.0,44,29.87,10.0,West,6.9,-,N/A,,Partly Cloudy,280,2013-09-27 23:15:00
5:35 PM,53.6,33.8,47,29.87,10.0,West,6.9,-,N/A,,Clear,260,2013-09-27 23:35:00
5:55 PM,51.8,33.8,50,29.87,10.0,WSW,5.8,-,N/A,,Partly Cloudy,250,2013-09-27 23:55:00
6:15 PM,51.8,33.8,50,29.89,10.0,SSW,5.8,-,N/A,,Partly Cloudy,210,2013-09-28 00:15:00
6:35 PM,50.0,33.8,54,29.89,10.0,SW,5.8,-,N/A,,Scattered Clouds,220,2013-09-28 00:35:00
6:55 PM,48.2,33.8,58,29.88,10.0,SW,4.6,-,N/A,,Partly Cloudy,220,2013-09-28 00:55:00
7:15 PM,48.2,33.8,58,29.87,10.0,SW,5.8,-,N/A,,Clear,220,2013-09-28 01:15:00
7:35 PM,46.4,33.8,62,29.88,10.0,SW,5.8,-,N/A,,Clear,220,2013-09-28 01:35:00
7:55 PM,48.2,33.8,58,29.88,10.0,SSW,6.9,-,N/A,,Clear,210,2013-09-28 01:55:00
8:15 PM,48.2,33.8,58,29.88,10.0,SW,8.1,-,N/A,,Clear,220,2013-09-28 02:15:00
8:35 PM,48.2,33.8,58,29.87,10.0,WSW,8.1,-,N/A,,Clear,240,2013-09-28 02:35:00
8:55 PM,46.4,33.8,62,29.87,10.0,WSW,8.1,-,N/A,,Clear,240,2013-09-28 02:55:00
9:35 PM,46.4,33.8,62,29.89,10.0,SW,8.1,-,N/A,,Clear,230,2013-09-28 03:35:00
9:55 PM,44.6,35.6,71,29.88,10.0,SW,8.1,-,N/A,,Clear,220,2013-09-28 03:55:00
10:15 PM,42.8,35.6,76,29.88,10.0,South,9.2,-,N/A,,Clear,190,2013-09-28 04:15:00
10:35 PM,42.8,33.8,70,29.87,10.0,SSW,9.2,-,N/A,,Clear,210,2013-09-28 04:35:00
10:55 PM,41.0,33.8,76,29.85,10.0,SSW,9.2,-,N/A,,Clear,200,2013-09-28 04:55:00
11:15 PM,41.0,33.8,76,29.85,10.0,SSW,9.2,-,N/A,,Clear,200,2013-09-28 05:15:00
11:35 PM,41.0,33.8,76,29.84,10.0,SSW,6.9,-,N/A,,Clear,200,2013-09-28 05:35:00
11:55 PM,39.2,32.0,75,29.83,10.0,SSW,4.6,-,N/A,,Clear,210,2013-09-28 05:55:00